CW4591 Weather Reports


Display with metric or nautical units.
time (UTC)temp
F
wind
direction
speed
MPH
gust
MPH
rain 1hr
in
rain 24hr
in
rain mn
in
humidity
%
barometer
mb
20260509040046 49 176 4.0 6.0 0.00 0.00 0.00 41 998.0
20260509034541 50 179 3.0 8.0 0.00 0.00 0.00 40 998.2
20260509033036 50 209 0.0 9.0 0.00 0.00 0.00 43 998.3
20260509031535 50 195 2.0 8.0 0.00 0.00 0.00 38 998.4
20260509030038 51 171 2.0 11.0 0.00 0.00 0.00 37 998.6
20260509024534 52 180 3.0 8.0 0.00 0.00 0.00 34 998.7
20260509023042 51 180 2.0 6.0 0.00 0.00 0.00 36 998.8
20260509021530 52 193 2.0 5.0 0.00 0.00 0.00 36 999.0
20260509020029 51 156 1.0 7.0 0.00 0.00 0.00 36 999.1
20260509014534 52 168 0.0 8.0 0.00 0.00 0.00 36 999.2
20260509013028 52 233 1.0 8.0 0.00 0.00 0.00 37 999.4
20260509011524 52 158 3.0 8.0 0.00 0.00 0.00 34 999.6
20260509010022 52 156 2.0 8.0 0.00 0.00 0.00 37 999.9
20260509004523 51 143 4.0 10.0 0.00 0.00 0.00 37 1000.1
20260509003033 52 154 5.0 13.0 0.00 0.00 0.00 37 1000.2
20260509001516 52 169 2.0 10.0 0.00 0.00 0.00 36 1000.4
20260509000015 51 186 1.0 15.0 0.00 0.00 0.00 39 1000.6
20260508234514 52 145 5.0 13.0 0.00 0.00 0.00 40 1000.7
20260508233012 52 97 5.0 12.0 0.00 0.00 0.00 38 1000.9
20260508231510 52 174 7.0 14.0 0.00 0.00 0.00 37 1001.1
20260508230010 52 359 7.0 14.0 0.00 0.00 0.00 37 1001.4
20260508224506 51 149 3.0 11.0 0.00 0.00 0.00 42 1001.4
20260508223005 51 93 0.0 7.0 0.00 0.00 0.00 42 1001.5
20260508221503 51 106 3.0 7.0 0.00 0.00 0.00 41 1001.7
20260508220100 50 107 4.0 10.0 0.00 0.00 0.00 40 1001.9
20260508214559 50 193 2.0 8.0 0.00 0.00 0.00 43 1002.1
20260508213102 50 79 4.0 14.0 0.00 0.00 0.00 43 1002.3
20260508211555 50 143 6.0 14.0 0.00 0.00 0.00 41 1002.5
20260508210054 51 133 3.0 10.0 0.00 0.00 0.00 40 1002.5
20260508204551 51 82 2.0 12.0 0.00 0.00 0.00 42 1002.6
20260508203051 49 101 0.0 8.0 0.00 0.00 0.00 44 1002.9
20260508201546 48 264 1.0 4.0 0.00 0.00 0.00 46 1003.1
20260508200056 49 58 1.0 8.0 0.00 0.00 0.00 45 1003.3
20260508194543 49 135 5.0 10.0 0.00 0.00 0.00 46 1003.4
20260508193043 47 36 0.0 6.0 0.00 0.00 0.00 49 1003.6
20260508191538 45 29 1.0 3.0 0.00 0.00 0.00 53 1003.9
20260508190041 45 29 0.0 3.0 0.00 0.00 0.00 51 1004.2
20260508184534 46 54 3.0 6.0 0.00 0.00 0.00 50 1004.4
20260508183028 46 322 0.0 6.0 0.00 0.00 0.00 49 1004.6
20260508181527 46 359 0.0 4.0 0.00 0.00 0.00 51 1004.9
20260508180024 45 287 0.0 4.0 0.00 0.00 0.00 51 1005.2
20260508174532 44 329 4.0 6.0 0.00 0.00 0.00 52 1005.5
20260508173017 43 288 2.0 7.0 0.00 0.00 0.00 53 1005.7
20260508171513 43 339 0.0 7.0 0.00 0.00 0.00 56 1005.9
20260508170011 42 73 3.0 9.0 0.00 0.00 0.00 57 1006.1
20260508164509 42 16 3.0 8.0 0.00 0.00 0.00 60 1006.4
20260508163007 40 334 2.0 9.0 0.00 0.00 0.00 65 1006.7
20260508161603 39 337 1.0 6.0 0.00 0.00 0.00 67 1006.9
20260508160056 38 341 3.0 7.0 0.00 0.00 0.00 69 1007.1
20260508154555 37 327 4.0 7.0 0.00 0.00 0.00 69 1007.4
20260508153054 36 295 4.0 7.0 0.00 0.00 0.00 70 1007.5
20260508151548 36 275 2.0 5.0 0.00 0.00 0.00 70 1007.7
20260508150046 36 359 2.0 6.0 0.00 0.00 0.00 72 1007.8
20260508144542 33 272 3.0 7.0 0.00 0.00 0.00 78 1007.9
20260508143040 29 247 2.0 5.0 0.00 0.00 0.00 86 1008.1
20260508141536 28 245 0.0 2.0 0.00 0.00 0.00 86 1008.4
20260508140034 27 245 0.0 0.0 0.00 0.00 0.00 85 1008.6
20260508134537 28 243 0.0 0.0 0.00 0.00 0.00 84 1008.7
20260508133030 28 245 0.0 0.0 0.00 0.00 0.00 83 1008.9
20260508131527 28 245 0.0 0.0 0.00 0.00 0.00 82 1008.9
20260508130024 29 244 0.0 0.0 0.00 0.00 0.00 81 1009.0
20260508124524 29 243 0.0 0.0 0.00 0.00 0.00 81 1009.2
20260508123029 30 244 0.0 4.0 0.00 0.00 0.00 79 1009.4
20260508121519 30 359 2.0 3.0 0.00 0.00 0.00 78 1009.5
20260508120017 30 301 1.0 3.0 0.00 0.00 0.00 77 1009.6
20260508114516 31 300 0.0 4.0 0.00 0.00 0.00 77 1009.8
20260508113014 30 359 1.0 3.0 0.00 0.00 0.00 76 1009.9
20260508111512 31 271 1.0 3.0 0.00 0.00 0.00 76 1010.1
20260508110010 31 272 0.0 2.0 0.00 0.00 0.00 76 1010.3
20260508104509 31 271 2.0 3.0 0.00 0.00 0.00 75 1010.4
20260508103011 31 320 2.0 3.0 0.00 0.00 0.00 76 1010.4
20260508101520 30 320 0.0 3.0 0.00 0.00 0.00 77 1010.5
20260508100007 30 239 0.0 3.0 0.00 0.00 0.00 77 1010.6
20260508094505 29 239 0.0 0.0 0.00 0.00 0.00 76 1010.6
20260508093005 29 239 0.0 1.0 0.00 0.00 0.00 77 1010.8
20260508091600 29 240 0.0 4.0 0.00 0.00 0.00 76 1010.9
20260508090110 29 230 0.0 0.0 0.00 0.00 0.00 74 1010.8
20260508084555 30 230 0.0 0.0 0.00 0.00 0.00 73 1011.0
20260508083050 31 231 0.0 0.0 0.00 0.00 0.00 72 1011.1
20260508081553 32 230 0.0 0.0 0.00 0.00 0.00 70 1011.2
20260508080050 33 231 0.0 0.0 0.00 0.00 0.00 69 1011.4
20260508074543 35 231 0.0 0.0 0.00 0.00 0.00 66 1011.4
20260508073042 35 230 0.0 0.0 0.00 0.00 0.00 66 1011.5
20260508071541 36 231 0.0 0.0 0.00 0.00 0.00 65 1011.7
20260508070042 37 231 0.0 0.0 0.00 0.00 0.00 64 1011.7
20260508064540 37 231 0.0 0.0 0.00 0.00 0.00 60 1011.7
20260508063040 39 231 0.0 0.0 0.00 0.00 0.00 57 1011.6
20260508061540 39 359 0.0 0.0 0.00 0.00 0.00 55 1011.7
20260508060042 40 231 0.0 0.0 0.00 0.00 0.00 56 1011.7
20260508054553 41 231 0.0 2.0 0.00 0.00 0.00 52 1011.7
20260508053040 42 231 0.0 2.0 0.00 0.00 0.00 49 1011.7
20260508051537 43 197 2.0 4.0 0.00 0.00 0.00 46 1011.7
20260508050039 44 194 2.0 5.0 0.00 0.00 0.00 46 1011.8
20260508044541 45 188 1.0 6.0 0.00 0.00 0.00 42 1011.9
20260508043036 46 186 0.0 5.0 0.00 0.00 0.00 40 1011.9
20260508041545 46 195 1.0 6.0 0.00 0.00 0.00 39 1011.9